Weather History for Dayton, OH

Change the Weather History Date:

Tuesday, April 29, 2014

  Actual Average Record
Temperature  
Mean Temperature 65 °F 56 °F  
Max Temperature 75 °F 67 °F 87 °F (1899)
Min Temperature 55 °F 46 °F 30 °F (1977)
Degree Days  
Heating Degree Days 0 9  
Month to date heating degree days 327 403  
Since 1 July heating degree days 5803 5442  
Cooling Degree Days 0 1  
Month to date cooling degree days 8 9  
Year to date cooling degree days 8 9  
Growing Degree Days 15 (Base 50)    
Moisture  
Dew Point 56 °F    
Average Humidity 66    
Maximum Humidity 93    
Minimum Humidity 38    
Precipitation  
Precipitation 0.65 in 0.14 in 2.53 in (1996)
Month to date precipitation 5.80 3.95  
Year to date precipitation 13.40 12.24  
Snow  
Snow 0.00 in 0.00 in 0.00 in ()
Month to date snowfall 1.1 0.6  
Since 1 July snowfall 53.6 23.3  
Snow Depth 0.00 in    
Sea Level Pressure  
Sea Level Pressure 29.66 in    
Wind  
Wind Speed 14 mph (SSW)    
Max Wind Speed 32 mph    
Max Gust Speed 40 mph    
Visibility 9 miles    
Events Rain    
T = Trace of Precipitation, MM = Missing Value Source: NWS Daily Summary

Daily Weather History Graph

Daily Weather History Graph

Search for Another Location

Airport:

Trip Planner

Search our weather history database for the weather conditions in past years. The results will help you decide how hot, cold, wet, or windy it might be!

Date:

Astronomy

Apr. 29, 2014 Rise Set
Actual Time 6:39 AM EDT 8:29 PM EDT
Civil Twilight 6:10 AM EDT 8:58 PM EDT
Nautical Twilight 5:35 AM EDT 9:34 PM EDT
Astronomical Twilight 4:57 AM EDT 10:12 PM EDT
Moon 6:57 AM EDT (4/29) 9:08 PM EDT (4/29)
Length of Visible Light 14h 48m
Length of Day
13h 49m
New Moon, 0% of the Moon is Illuminated
Apr 29
New Moon
May 6
First Quarter
May 14
Full
May 21
Last Quarter
May 28
New

Hourly Weather History & Observations

Time (EDT) Temp. Dew Point Humidity Pressure Visibility Wind Dir Wind Speed Gust Speed Precip Events Conditions
12:56 AM 62.1 °F 59.0 °F 90% 29.65 in 10.0 mi SSE 11.5 mph - 0.09 in Rain Light Rain
1:56 AM 62.1 °F 59.0 °F 90% 29.62 in 10.0 mi SE 16.1 mph - 0.04 in   Overcast
2:56 AM 62.1 °F 59.0 °F 90% 29.59 in 6.0 mi SE 18.4 mph 27.6 mph 0.02 in Rain Rain
3:07 AM 62.6 °F 59.0 °F 88% 29.59 in 6.0 mi SE 16.1 mph 21.9 mph 0.02 in Rain Light Rain
3:56 AM 62.1 °F 60.1 °F 93% 29.56 in 10.0 mi SE 15.0 mph - 0.16 in Rain Light Rain
4:03 AM 62.6 °F 60.8 °F 94% 29.57 in 10.0 mi SE 12.7 mph - 0.00 in   Overcast
4:56 AM 62.6 °F 60.8 °F 94% 29.55 in 10.0 mi SSE 11.5 mph - N/A   Overcast
5:56 AM 63.0 °F 60.1 °F 90% 29.55 in 10.0 mi SSE 11.5 mph - 0.00 in Rain Light Rain
6:02 AM 62.6 °F 60.8 °F 94% 29.55 in 10.0 mi SSE 11.5 mph - 0.00 in Rain Light Rain
6:27 AM 62.6 °F 60.8 °F 94% 29.57 in 10.0 mi SSW 4.6 mph - 0.00 in   Overcast
6:56 AM 63.0 °F 60.1 °F 90% 29.56 in 10.0 mi South 5.8 mph - 0.00 in   Overcast
7:09 AM 62.6 °F 60.8 °F 94% 29.57 in 10.0 mi South 8.1 mph - N/A   Overcast
7:23 AM 62.6 °F 60.8 °F 94% 29.57 in 10.0 mi South 8.1 mph - N/A   Overcast
7:56 AM 63.0 °F 60.1 °F 90% 29.55 in 10.0 mi South 8.1 mph - N/A   Overcast
8:06 AM 62.6 °F 60.8 °F 94% 29.57 in 9.0 mi South 9.2 mph - N/A   Overcast
8:56 AM 64.0 °F 61.0 °F 90% 29.59 in 8.0 mi SSW 11.5 mph - N/A   Overcast
9:28 AM 64.4 °F 60.8 °F 88% 29.61 in 9.0 mi SSW 11.5 mph 20.7 mph N/A   Mostly Cloudy
9:56 AM 64.9 °F 61.0 °F 87% 29.61 in 10.0 mi SSW 12.7 mph - N/A   Mostly Cloudy
10:38 AM 66.2 °F 60.8 °F 83% 29.63 in 10.0 mi SW 15.0 mph - N/A   Mostly Cloudy
10:56 AM 66.9 °F 60.1 °F 79% 29.62 in 10.0 mi SSW 13.8 mph 24.2 mph N/A   Mostly Cloudy
11:56 AM 69.1 °F 57.0 °F 65% 29.65 in 10.0 mi SSW 18.4 mph 24.2 mph N/A   Mostly Cloudy
12:56 PM 70.0 °F 53.1 °F 55% 29.66 in 10.0 mi SSW 15.0 mph 23.0 mph N/A   Scattered Clouds
1:56 PM 73.0 °F 52.0 °F 48% 29.68 in 10.0 mi SSW 17.3 mph 26.5 mph N/A   Scattered Clouds
2:56 PM 73.9 °F 50.0 °F 43% 29.68 in 10.0 mi SSW 17.3 mph - N/A   Mostly Cloudy
3:56 PM 73.9 °F 48.9 °F 41% 29.68 in 10.0 mi SSW 18.4 mph 27.6 mph N/A   Mostly Cloudy
4:56 PM 73.0 °F 46.9 °F 39% 29.68 in 10.0 mi SSW 12.7 mph - N/A   Mostly Cloudy
5:56 PM 72.0 °F 46.9 °F 41% 29.67 in 10.0 mi SSW 9.2 mph - N/A   Mostly Cloudy
6:48 PM 66.2 °F 46.4 °F 49% 29.73 in 10.0 mi West 21.9 mph 33.4 mph N/A   Mostly Cloudy
6:56 PM 64.9 °F 46.9 °F 52% 29.73 in 10.0 mi West 21.9 mph 28.8 mph N/A   Mostly Cloudy
7:37 PM 59.0 °F 51.8 °F 77% 29.86 in 2.0 mi WSW 29.9 mph 40.3 mph 0.02 in Rain Heavy Rain
7:47 PM 57.2 °F 53.6 °F 88% 29.85 in 2.0 mi WSW 23.0 mph 36.8 mph 0.07 in Rain Heavy Rain
7:56 PM 57.0 °F 52.0 °F 83% 29.78 in 4.0 mi West 21.9 mph 34.5 mph 0.08 in Rain Light Rain
8:56 PM 57.0 °F 48.9 °F 74% 29.82 in 10.0 mi West 17.3 mph 21.9 mph 0.00 in   Mostly Cloudy
9:10 PM 57.2 °F 48.2 °F 72% 29.83 in 10.0 mi West 16.1 mph 23.0 mph 0.00 in Rain Light Rain
9:56 PM 55.0 °F 51.1 °F 86% 29.80 in 7.0 mi SW 3.5 mph - 0.08 in Rain Light Rain
10:56 PM 55.0 °F 52.0 °F 89% 29.88 in 3.0 mi South 18.4 mph 26.5 mph 0.12 in Rain Heavy Rain
11:56 PM 55.9 °F 52.0 °F 87% 29.84 in 7.0 mi South 16.1 mph 21.9 mph 0.10 in Rain Light Rain